Regional Weather Roundup
Issued by NWS

Home | Current Version | Previous Version | Text Only | Print | Product List | Glossary Off
Versions: 1 2 3 4 5 6 7 8 9 10 11 12 13 14 15 16 17 18 19 20 21 22 23 24 25 26 27 28 29 30 31 32 33 34 35 36 37 38 39 40 41 42 43 44 45 46 47 48 49 50

000
ASUS43 KLMK 291002
RWRKY
KENTUCKY REGIONAL WEATHER ROUNDUP
NATIONAL WEATHER SERVICE LOUISVILLE KY
600 AM EDT TUE JUL 29 2014

NOTE "FAIR" INDICATES FEW OR NO CLOUDS BELOW 12,000 FEET
WITH NO SIGNIFICANT WEATHER AND/OR OBSTRUCTIONS TO VISIBILITY.

KYZ001>023-026-027-061>063-070>075-291100-
WESTERN AND SOUTH CENTRAL KENTUCKY

CITY           SKY/WX    TMP DP  RH WIND       PRES   REMARKS
PADUCAH        CLEAR     57  54  89 W3        30.09S
HENDERSON      CLEAR     52  48  87 W3        30.09R
OWENSBORO      CLEAR     53  50  90 CALM      30.09R
HOPKINSVILLE   CLEAR     58  55  89 NW6       30.07R
BOWLING GREEN  CLEAR     59  51  75 N6        30.06R
GLASGOW        CLEAR     56  48  76 N6        30.04S
$$

KYZ024-025-028>034-038-045-046-053-291100-
NORTH CENTRAL KENTUCKY

CITY           SKY/WX    TMP DP  RH WIND       PRES   REMARKS
LOUISVILLE/SDF PTCLDY    56  48  74 W6        30.05R
LOUISVILLE/LOU CLEAR     55  48  77 NW3       30.06R
FORT KNOX      CLEAR     50  49  96 W2        30.05R
$$

KYZ035>037-039>044-047>052-055>060-089>105-291100-
NORTHEAST KENTUCKY

CITY           SKY/WX    TMP DP  RH WIND       PRES   REMARKS
LEXINGTON      CLEAR     53  49  86 NW3       30.03R
COVINGTON      NOT AVBL
FRANKFORT      CLEAR     51  48  89 NW3       30.03R
$$

KYZ054-064>069-076>088-106>120-291100-
SOUTHEAST KENTUCKY

CITY           SKY/WX    TMP DP  RH WIND       PRES   REMARKS
JACKSON        CLEAR     56  54  93 NW5       30.01R
LONDON         CLOUDY    61  53  75 CALM      30.02S
SOMERSET       CLOUDY    59  54  82 CALM      30.04S
MIDDLESBORO    CLOUDY    58  58 100 CALM      30.02R FOG
MONTICELLO     PTSUNNY   61  58  90 CALM      30.04S
$$




USA.gov is the U.S. government's official web portal to all federal, state and local government web resources and services.